Location: Lobos
(35.3000°S, 59.0940°W)
Time: 15:46:11
(UTC-03:00)

N. Korean satellite - Visible Passes

Search period start: 21 September 2020 00:00
Search period end: 01 October 2020 00:00
Orbit: 455 x 503 km, 97.2° (Epoch: 20 September)

Date Brightness Start Highest point End Pass type
(mag) Time Alt. Az. Time Alt. Az. Time Alt. Az.
21 Sep 6.6 06:01:07 10° N 06:04:33 54° W 06:08:00 10° SSW visible
22 Sep 7.1 05:35:07 10° NNE 05:38:34 59° ESE 05:42:02 10° S visible
23 Sep 9.0 05:09:46 10° NE 05:12:40 25° ESE 05:15:35 10° SSE visible
24 Sep 10.1 04:45:35 10° E 04:46:52 12° ESE 04:48:09 10° SE visible
24 Sep 7.2 06:16:43 10° NNW 06:19:52 31° W 06:23:02 10° SSW visible
24 Sep 9.8 19:19:25 10° SSW 19:21:51 18° WSW 19:24:17 10° WNW visible
25 Sep 6.4 05:50:21 10° N 05:53:49 80° WNW 05:57:20 10° SSW visible
26 Sep 8.0 05:24:35 10° NE 05:27:52 40° ESE 05:31:10 10° S visible
27 Sep 9.5 04:59:33 10° ENE 05:02:00 18° ESE 05:04:27 10° SSE visible
27 Sep 10.3 19:35:47 10° SW 19:36:59 11° WSW 19:38:13 10° W visible
28 Sep 6.8 06:05:45 10° N 06:09:06 45° W 06:12:28 10° SSW visible
29 Sep 6.8 05:39:38 10° NNE 05:43:05 70° ESE 05:46:33 10° S visible
30 Sep 8.7 05:14:08 10° NE 05:17:09 28° ESE 05:20:11 10° SSE visible
